Fort Polk, LA

5:28 PM CST on December 08, 2019 (GMT -0600)
Fort Polk

Weather History for KAQV - November, 2019

Change the Weather History Date:

Sunday, November 17, 2019

  Actual Average (WUND) Record (WUND)
Temperature  
Mean Temperature 48 °F -  
Max Temperature 66 °F - - (-1)
Min Temperature 30 °F - - (-1)
Degree Days  
Heating Degree Days 17    
Moisture  
Dew Point 34 °F    
Average Humidity 68    
Maximum Humidity 96    
Minimum Humidity 26    
Precipitation  
Precipitation 0.00 in - - ()
Sea Level Pressure  
Sea Level Pressure 30.03 in    
Wind  
Wind Speed 1 mph ()    
Max Wind Speed 6 mph    
Max Gust Speed -    
Visibility 9.1 miles    
Events      
Averages and records for this station are not official NWS values.
T = Trace of Precipitation, MM = Missing Value Source: Averaged Metar Reports

Daily Weather History Graph

Daily Weather History Graph

Search for Another Location

Airport or City:

Astronomy

Nov. 17, 2019 Rise Set
Actual Time 6:42 AM CST 5:13 PM CST
Civil Twilight 6:16 AM CST 5:39 PM CST
Nautical Twilight 5:47 AM CST 6:08 PM CST
Astronomical Twilight 5:18 AM CST 6:37 PM CST
Moon 9:55 PM CST (11/17) 11:23 AM CST (11/17)
Length of Visible Light 11h 22m
Length of Day
10h 31m
Waning Gibbous, 73% of the Moon is Illuminated
Nov 17
Waning Gibbous
Nov 19
Last Quarter
Nov 26
New
Dec 4
First Quarter
Dec 11
Full

Hourly Weather History & Observations

Time (CST) Temp. Dew Point Humidity Pressure Visibility Wind Dir Wind Speed Gust Speed Precip Events Conditions
1:57 AM 34.0 °F 32.0 °F 92% 30.08 in 8.0 mi Calm Calm - N/A   Clear
2:57 AM 33.1 °F 30.9 °F 92% 30.08 in 8.0 mi Calm Calm - N/A   Clear
3:57 AM 32.0 °F 30.0 °F 92% 30.07 in 8.0 mi Calm Calm - N/A   Clear
4:57 AM 30.9 °F 28.9 °F 92% 30.08 in 6.0 mi Calm Calm - N/A   Clear
5:57 AM 30.0 °F 28.0 °F 92% 30.08 in 7.0 mi Calm Calm - N/A   Clear
6:57 AM 30.9 °F 28.0 °F 89% 30.10 in 6.0 mi Calm Calm - N/A   Clear
7:57 AM 35.1 °F 34.0 °F 96% 30.11 in 6.0 mi Calm Calm - N/A   Clear
8:57 AM 46.0 °F 41.0 °F 83% 30.11 in 10.0 mi Calm Calm - N/A   Clear
9:57 AM 53.1 °F 34.0 °F 48% 30.10 in 10.0 mi Calm Calm - 0.00 in   Clear
10:57 AM 57.0 °F 30.9 °F 37% 30.10 in 10.0 mi Variable 3.5 mph - N/A   Clear
11:57 AM 61.0 °F 30.9 °F 32% 30.05 in 10.0 mi NNE 5.8 mph - N/A   Clear
12:57 PM 64.0 °F 32.0 °F 30% 30.02 in 10.0 mi Variable 4.6 mph - N/A   Clear
1:57 PM 64.9 °F 28.9 °F 26% 29.98 in 10.0 mi Variable 3.5 mph - N/A   Clear
2:57 PM 66.0 °F 30.0 °F 26% 29.98 in 10.0 mi North - - N/A   Clear
3:57 PM 64.0 °F 33.1 °F 31% 29.97 in 10.0 mi North - - N/A   Mostly Cloudy
4:57 PM 55.9 °F 37.9 °F 51% 29.96 in 10.0 mi North - - N/A   Clear
5:57 PM 48.9 °F 37.9 °F 66% 29.98 in 10.0 mi Calm Calm - N/A   Clear
6:57 PM 46.0 °F 37.9 °F 73% 30.00 in 10.0 mi Calm Calm - N/A   Clear
7:57 PM 43.0 °F 37.9 °F 82% 30.00 in 10.0 mi Calm Calm - N/A   Clear
8:57 PM 42.1 °F 37.9 °F 85% 30.00 in 10.0 mi Calm Calm - N/A   Clear
9:57 PM 42.1 °F 37.0 °F 82% 29.99 in 10.0 mi Calm Calm - N/A   Clear
10:57 PM 41.0 °F 37.0 °F 86% 29.98 in 10.0 mi Calm Calm - N/A   Clear
11:57 PM 39.9 °F 37.0 °F 89% 29.97 in 10.0 mi Calm Calm - N/A   Clear